This demonstration page uses our WeatherBlox Daily Observations layout. Learn more.

Left ArrowRight Arrow

Hourly Observations for March 30, 2015

Temp ( °F °C ) Dew Point ( °F °C ) Humidity (%) Winds ( mph kmh ) Pressure ( in mb ) Visibility ( mi km ) Precip ( " mm )
12:53 am 00:53 Clear 50 10 32 undefined 50 50 SW 18 30 29.95 1014 10 16 N/A
1:53 am 01:53 Clear 49 9.4 32 undefined 52 52 SW 18 30 29.95 1014 10 16 N/A
2:53 am 02:53 Clear 46 7.8 32 undefined 58 58 WSW 10 17 29.97 1015 10 16 N/A
3:53 am 03:53 Clear 43 6.1 32 undefined 65 65 W 3 6 29.98 1015 10 16 N/A
4:53 am 04:53 Clear 40 4.4 32 undefined 73 73 W 8 13 30.00 1016 10 16 N/A
5:53 am 05:53 Clear 37 2.8 31 -0.6 79 79 SW 10 17 30.02 1017 10 16 N/A
6:53 am 06:53 Clear 37 2.8 31 -0.6 79 79 SW 9 15 30.04 1017 10 16 N/A
7:53 am 07:53 Sunny 43 6.1 33 0.6 68 68 SSW 8 13 30.06 1018 10 16 N/A
8:53 am 08:53 Sunny 47 8.3 34 1.1 61 61 SSW 10 17 30.06 1018 10 16 N/A
9:53 am 09:53 Sunny 50 10 34 1.1 54 54 SW 12 19 30.07 1018 10 16 N/A
10:53 am 10:53 Sunny 55 12.8 33 0.6 44 44 W 9 15 30.06 1018 10 16 N/A
11:53 am 11:53 Sunny 58 14.4 33 0.6 39 39 SSW 8 13 30.04 1017 10 16 N/A
12:53 pm 12:53 Sunny 61 16.1 33 0.6 35 35 SW 10 17 30.01 1016 10 16 N/A
1:53 pm 13:53 Sunny 63 17.2 32 undefined 31 31 W 10 17 30.00 1016 10 16 N/A
2:53 pm 14:53 Sunny 66 18.9 32 undefined 28 28 SW 14 22 29.97 1015 10 16 N/A
3:53 pm 15:53 Sunny 68 20 32 undefined 26 26 SW 13 20 29.93 1014 10 16 N/A
4:53 pm 16:53 Mostly Sunny 69 20.6 32 undefined 25 25 SSW 13 20 29.91 1013 10 16 N/A
5:53 pm 17:53 Sunny 68 20 32 undefined 26 26 W 12 19 29.90 1013 10 16 N/A
6:53 pm 18:53 Sunny 67 19.4 31 -0.6 26 26 W 9 15 29.89 1012 10 16 N/A
7:53 pm 19:53 Clear 60 15.6 31 -0.6 33 33 SW 3 6 29.88 1012 10 16 N/A
8:53 pm 20:53 Clear 47 8.3 32 undefined 56 56 SSE 9 15 29.90 1013 10 16 N/A
9:53 pm 21:53 Clear 46 7.8 33 0.6 61 61 SE 3 6 29.88 1012 10 16 N/A
10:53 pm 22:53 Clear 45 7.2 34 1.1 66 66 WNW 8 13 29.88 1012 10 16 N/A
11:53 pm 23:53 Clear 48 8.9 32 undefined 54 54 N N/A 29.85 1011 10 16 N/A

Powered by AerisWeather